Year,Month,Day,Hour,Minute,Value (Times are PST for temperature in C)
2018,07,13,00,00,20.60
2018,07,13,00,01,20.60
2018,07,13,00,02,20.60
2018,07,13,00,03,20.60
2018,07,13,00,04,20.50
2018,07,13,00,05,20.50
2018,07,13,00,06,20.40
2018,07,13,00,07,20.40
2018,07,13,00,08,20.30
2018,07,13,00,09,20.30
2018,07,13,00,10,20.30
2018,07,13,00,11,20.30
2018,07,13,00,12,20.30
2018,07,13,00,13,20.30
2018,07,13,00,14,20.30
2018,07,13,00,15,20.30
2018,07,13,00,16,20.30
2018,07,13,00,17,20.20
2018,07,13,00,18,20.20
2018,07,13,00,19,20.20
2018,07,13,00,20,20.20
2018,07,13,00,21,20.20
2018,07,13,00,22,20.10
2018,07,13,00,23,20.10
2018,07,13,00,24,20.10
2018,07,13,00,25,20.10
2018,07,13,00,26,20.10
2018,07,13,00,27,20.10
2018,07,13,00,28,20.10
2018,07,13,00,29,20.10
2018,07,13,00,30,20.00
2018,07,13,00,31,20.00
2018,07,13,00,32,20.00
2018,07,13,00,33,20.00
2018,07,13,00,34,20.00
2018,07,13,00,35,20.00
2018,07,13,00,36,20.00
2018,07,13,00,37,20.00
2018,07,13,00,38,20.00
2018,07,13,00,39,20.00
2018,07,13,00,40,20.00
2018,07,13,00,41,19.90
2018,07,13,00,42,19.90
2018,07,13,00,43,19.90
2018,07,13,00,44,19.90
2018,07,13,00,45,19.90
2018,07,13,00,46,19.80
2018,07,13,00,47,19.80
2018,07,13,00,48,19.80
2018,07,13,00,49,19.80
2018,07,13,00,50,19.80
2018,07,13,00,51,19.80
2018,07,13,00,52,19.80
2018,07,13,00,53,19.70
2018,07,13,00,54,19.70
2018,07,13,00,55,19.70
2018,07,13,00,56,19.70
2018,07,13,00,57,19.70
2018,07,13,00,58,19.70
2018,07,13,00,59,19.70
2018,07,13,01,00,19.70
2018,07,13,01,01,19.70
2018,07,13,01,02,19.70
2018,07,13,01,03,19.70
2018,07,13,01,04,19.70
2018,07,13,01,05,19.70
2018,07,13,01,06,19.70
2018,07,13,01,07,19.70
2018,07,13,01,08,19.70
2018,07,13,01,09,19.70
2018,07,13,01,10,19.70
2018,07,13,01,11,19.70
2018,07,13,01,12,19.60
2018,07,13,01,13,19.60
2018,07,13,01,14,19.60
2018,07,13,01,15,19.50
2018,07,13,01,16,19.50
2018,07,13,01,17,19.50
2018,07,13,01,18,19.40
2018,07,13,01,19,19.40
2018,07,13,01,20,19.40
2018,07,13,01,21,19.40
2018,07,13,01,22,19.40
2018,07,13,01,23,19.40
2018,07,13,01,24,19.30
2018,07,13,01,25,19.30
2018,07,13,01,26,19.30
2018,07,13,01,27,19.30
2018,07,13,01,28,19.30
2018,07,13,01,29,19.30
2018,07,13,01,30,19.30
2018,07,13,01,31,19.30
2018,07,13,01,32,19.20
2018,07,13,01,33,19.10
2018,07,13,01,34,19.10
2018,07,13,01,35,19.10
2018,07,13,01,36,19.10
2018,07,13,01,37,19.00
2018,07,13,01,38,19.00
2018,07,13,01,39,18.90
2018,07,13,01,40,18.90
2018,07,13,01,41,18.90
2018,07,13,01,42,18.90
2018,07,13,01,43,18.80
2018,07,13,01,44,18.80
2018,07,13,01,45,18.80
2018,07,13,01,46,18.70
2018,07,13,01,47,18.70
2018,07,13,01,48,18.70
2018,07,13,01,49,18.70
2018,07,13,01,50,18.70
2018,07,13,01,51,18.60
2018,07,13,01,52,18.60
2018,07,13,01,53,18.60
2018,07,13,01,54,18.60
2018,07,13,01,55,18.60
2018,07,13,01,56,18.60
2018,07,13,01,57,18.60
2018,07,13,01,58,18.60
2018,07,13,01,59,18.50
2018,07,13,02,00,18.50
2018,07,13,02,01,18.50
2018,07,13,02,02,18.50
2018,07,13,02,03,18.50
2018,07,13,02,04,18.50
2018,07,13,02,05,18.50
2018,07,13,02,06,18.50
2018,07,13,02,07,18.40
2018,07,13,02,08,18.40
2018,07,13,02,09,18.40
2018,07,13,02,10,18.40
2018,07,13,02,11,18.40
2018,07,13,02,12,18.40
2018,07,13,02,13,18.40
2018,07,13,02,14,18.40
2018,07,13,02,15,18.30
2018,07,13,02,16,18.30
2018,07,13,02,17,18.30
2018,07,13,02,18,18.30
2018,07,13,02,19,18.30
2018,07,13,02,20,18.30
2018,07,13,02,21,18.30
2018,07,13,02,22,18.30
2018,07,13,02,23,18.30
2018,07,13,02,24,18.30
2018,07,13,02,25,18.30
2018,07,13,02,26,18.30
2018,07,13,02,27,18.20
2018,07,13,02,28,18.20
2018,07,13,02,29,18.20
2018,07,13,02,30,18.20
2018,07,13,02,31,18.20
2018,07,13,02,32,18.10
2018,07,13,02,33,18.10
2018,07,13,02,34,18.00
2018,07,13,02,35,18.00
2018,07,13,02,36,18.00
2018,07,13,02,37,17.90
2018,07,13,02,38,17.90
2018,07,13,02,39,17.90
2018,07,13,02,40,17.80
2018,07,13,02,41,17.80
2018,07,13,02,42,17.90
2018,07,13,02,43,17.90
2018,07,13,02,44,17.90
2018,07,13,02,45,17.90
2018,07,13,02,46,17.90
2018,07,13,02,47,17.90
2018,07,13,02,48,17.90
2018,07,13,02,49,17.90
2018,07,13,02,50,17.90
2018,07,13,02,51,17.90
2018,07,13,02,52,17.90
2018,07,13,02,53,17.90
2018,07,13,02,54,17.90
2018,07,13,02,55,17.90
2018,07,13,02,56,17.90
2018,07,13,02,57,17.90
2018,07,13,02,58,18.00
2018,07,13,02,59,18.00
2018,07,13,03,00,18.00
2018,07,13,03,01,18.00
2018,07,13,03,02,18.00
2018,07,13,03,03,18.00
2018,07,13,03,04,18.00
2018,07,13,03,05,17.90
2018,07,13,03,06,17.90
2018,07,13,03,07,17.90
2018,07,13,03,08,17.90
2018,07,13,03,09,17.90
2018,07,13,03,10,17.90
2018,07,13,03,11,17.90
2018,07,13,03,12,17.80
2018,07,13,03,13,17.80
2018,07,13,03,14,17.90
2018,07,13,03,15,17.90
2018,07,13,03,16,17.90
2018,07,13,03,17,17.90
2018,07,13,03,18,17.90
2018,07,13,03,19,17.90
2018,07,13,03,20,17.90
2018,07,13,03,21,17.90
2018,07,13,03,22,17.90
2018,07,13,03,23,17.90
2018,07,13,03,24,17.90
2018,07,13,03,25,17.90
2018,07,13,03,26,17.90
2018,07,13,03,27,17.90
2018,07,13,03,28,17.90
2018,07,13,03,29,17.90
2018,07,13,03,30,17.90
2018,07,13,03,31,17.80
2018,07,13,03,32,17.80
2018,07,13,03,33,17.80
2018,07,13,03,34,17.80
2018,07,13,03,35,17.70
2018,07,13,03,36,17.70
2018,07,13,03,37,17.60
2018,07,13,03,38,17.50
2018,07,13,03,39,17.50
2018,07,13,03,40,17.40
2018,07,13,03,41,17.30
2018,07,13,03,42,17.20
2018,07,13,03,43,17.20
2018,07,13,03,44,17.10
2018,07,13,03,45,17.10
2018,07,13,03,46,17.10
2018,07,13,03,47,17.00
2018,07,13,03,48,16.90
2018,07,13,03,49,16.80
2018,07,13,03,50,16.60
2018,07,13,03,51,16.50
2018,07,13,03,52,16.40
2018,07,13,03,53,16.20
2018,07,13,03,54,16.10
2018,07,13,03,55,16.00
2018,07,13,03,56,15.90
2018,07,13,03,57,15.80
2018,07,13,03,58,15.70
2018,07,13,03,59,15.60
2018,07,13,04,00,15.60
2018,07,13,04,01,15.50
2018,07,13,04,02,15.40
2018,07,13,04,03,15.30
2018,07,13,04,04,15.30
2018,07,13,04,05,15.20
2018,07,13,04,06,15.20
2018,07,13,04,07,15.10
2018,07,13,04,08,15.10
2018,07,13,04,09,15.00
2018,07,13,04,10,15.00
2018,07,13,04,11,15.00
2018,07,13,04,12,14.90
2018,07,13,04,13,14.90
2018,07,13,04,14,14.80
2018,07,13,04,15,14.80
2018,07,13,04,16,14.70
2018,07,13,04,17,14.70
2018,07,13,04,18,14.70
2018,07,13,04,19,14.60
2018,07,13,04,20,14.60
2018,07,13,04,21,14.60
2018,07,13,04,22,14.50
2018,07,13,04,23,14.50
2018,07,13,04,24,14.50
2018,07,13,04,25,14.50
2018,07,13,04,26,14.50
2018,07,13,04,27,14.50
2018,07,13,04,28,14.40
2018,07,13,04,29,14.40
2018,07,13,04,30,14.40
2018,07,13,04,31,14.30
2018,07,13,04,32,14.30
2018,07,13,04,33,14.30
2018,07,13,04,34,14.30
2018,07,13,04,35,14.20
2018,07,13,04,36,14.20
2018,07,13,04,37,14.20
2018,07,13,04,38,14.20
2018,07,13,04,39,14.20
2018,07,13,04,40,14.20
2018,07,13,04,41,14.10
2018,07,13,04,42,14.10
2018,07,13,04,43,14.10
2018,07,13,04,44,14.10
2018,07,13,04,45,14.10
2018,07,13,04,46,14.00
2018,07,13,04,47,14.00
2018,07,13,04,48,14.00
2018,07,13,04,49,13.90
2018,07,13,04,50,13.90
2018,07,13,04,51,13.90
2018,07,13,04,52,13.90
2018,07,13,04,53,13.90
2018,07,13,04,54,13.90
2018,07,13,04,55,13.80
2018,07,13,04,56,13.80
2018,07,13,04,57,13.80
2018,07,13,04,58,13.80
2018,07,13,04,59,13.80
2018,07,13,05,00,13.80
2018,07,13,05,01,13.70
2018,07,13,05,02,13.70
2018,07,13,05,03,13.70
2018,07,13,05,04,13.70
2018,07,13,05,05,13.70
2018,07,13,05,06,13.70
2018,07,13,05,07,13.60
2018,07,13,05,08,13.60
2018,07,13,05,09,13.60
2018,07,13,05,10,13.60
2018,07,13,05,11,13.60
2018,07,13,05,12,13.60
2018,07,13,05,13,13.50
2018,07,13,05,14,13.50
2018,07,13,05,15,13.50
2018,07,13,05,16,13.50
2018,07,13,05,17,13.50
2018,07,13,05,18,13.50
2018,07,13,05,19,13.50
2018,07,13,05,20,13.50
2018,07,13,05,21,13.50
2018,07,13,05,22,13.50
2018,07,13,05,23,13.50
2018,07,13,05,24,13.50
2018,07,13,05,25,13.50
2018,07,13,05,26,13.50
2018,07,13,05,27,13.40
2018,07,13,05,28,13.40
2018,07,13,05,29,13.40
2018,07,13,05,30,13.40
2018,07,13,05,31,13.40
2018,07,13,05,32,13.40
2018,07,13,05,33,13.30
2018,07,13,05,34,13.30
2018,07,13,05,35,13.30
2018,07,13,05,36,13.30
2018,07,13,05,37,13.30
2018,07,13,05,38,13.30
2018,07,13,05,39,13.30
2018,07,13,05,40,13.30
2018,07,13,05,41,13.20
2018,07,13,05,42,13.20
2018,07,13,05,43,13.20
2018,07,13,05,44,13.20
2018,07,13,05,45,13.20
2018,07,13,05,46,13.20
2018,07,13,05,47,13.10
2018,07,13,05,48,13.10
2018,07,13,05,49,13.10
2018,07,13,05,50,13.10
2018,07,13,05,51,13.10
2018,07,13,05,52,13.10
2018,07,13,05,53,13.00
2018,07,13,05,54,13.00
2018,07,13,05,55,13.00
2018,07,13,05,56,13.00
2018,07,13,05,57,13.00
2018,07,13,05,58,13.00
2018,07,13,05,59,13.00
2018,07,13,06,00,13.00
2018,07,13,06,01,13.00
2018,07,13,06,02,13.00
2018,07,13,06,03,13.00
2018,07,13,06,04,13.00
2018,07,13,06,05,13.00
2018,07,13,06,06,13.00
2018,07,13,06,07,13.10
2018,07,13,06,08,13.10
2018,07,13,06,09,13.10
2018,07,13,06,10,13.10
2018,07,13,06,11,13.10
2018,07,13,06,12,13.10
2018,07,13,06,13,13.10
2018,07,13,06,14,13.10
2018,07,13,06,15,13.10
2018,07,13,06,16,13.10
2018,07,13,06,17,13.10
2018,07,13,06,18,13.10
2018,07,13,06,19,13.10
2018,07,13,06,20,13.10
2018,07,13,06,21,13.10
2018,07,13,06,22,13.20
2018,07,13,06,23,13.20
2018,07,13,06,24,13.20
2018,07,13,06,25,13.20
2018,07,13,06,26,13.20
2018,07,13,06,27,13.20
2018,07,13,06,28,13.20
2018,07,13,06,29,13.20
2018,07,13,06,30,13.20
2018,07,13,06,31,13.30
2018,07,13,06,32,13.30
2018,07,13,06,33,13.30
2018,07,13,06,34,13.30
2018,07,13,06,35,13.40
2018,07,13,06,36,13.50
2018,07,13,06,37,13.50
2018,07,13,06,38,13.60
2018,07,13,06,39,13.60
2018,07,13,06,40,13.60
2018,07,13,06,41,13.70
2018,07,13,06,42,13.70
2018,07,13,06,43,13.70
2018,07,13,06,44,13.70
2018,07,13,06,45,13.80
2018,07,13,06,46,13.80
2018,07,13,06,47,13.80
2018,07,13,06,48,13.80
2018,07,13,06,49,13.90
2018,07,13,06,50,13.90
2018,07,13,06,51,13.90
2018,07,13,06,52,14.00
2018,07,13,06,53,14.00
2018,07,13,06,54,14.10
2018,07,13,06,55,14.10
2018,07,13,06,56,14.10
2018,07,13,06,57,14.10
2018,07,13,06,58,14.20
2018,07,13,06,59,14.20
2018,07,13,07,00,14.20
2018,07,13,07,01,14.20
2018,07,13,07,02,14.20
2018,07,13,07,03,14.20
2018,07,13,07,04,14.30
2018,07,13,07,05,14.30
2018,07,13,07,06,14.40
2018,07,13,07,07,14.40
2018,07,13,07,08,14.50
2018,07,13,07,09,14.60
2018,07,13,07,10,14.60
2018,07,13,07,11,14.70
2018,07,13,07,12,14.70
2018,07,13,07,13,14.80
2018,07,13,07,14,14.80
2018,07,13,07,15,14.80
2018,07,13,07,16,14.90
2018,07,13,07,17,14.90
2018,07,13,07,18,15.00
2018,07,13,07,19,15.10
2018,07,13,07,20,15.10
2018,07,13,07,21,15.20
2018,07,13,07,22,15.20
2018,07,13,07,23,15.30
2018,07,13,07,24,15.40
2018,07,13,07,25,15.40
2018,07,13,07,26,15.50
2018,07,13,07,27,15.60
2018,07,13,07,28,15.60
2018,07,13,07,29,15.80
2018,07,13,07,30,15.80
2018,07,13,07,31,15.90
2018,07,13,07,32,15.90
2018,07,13,07,33,16.00
2018,07,13,07,34,16.00
2018,07,13,07,35,16.10
2018,07,13,07,36,16.10
2018,07,13,07,37,16.20
2018,07,13,07,38,16.30
2018,07,13,07,39,16.30
2018,07,13,07,40,16.40
2018,07,13,07,41,16.40
2018,07,13,07,42,16.50
2018,07,13,07,43,16.60
2018,07,13,07,44,16.70
2018,07,13,07,45,16.80
2018,07,13,07,46,16.80
2018,07,13,07,47,16.90
2018,07,13,07,48,16.90
2018,07,13,07,49,17.00
2018,07,13,07,50,17.00
2018,07,13,07,51,17.10
2018,07,13,07,52,17.20
2018,07,13,07,53,17.30
2018,07,13,07,54,17.50
2018,07,13,07,55,17.70
2018,07,13,07,56,17.80
2018,07,13,07,57,17.90
2018,07,13,07,58,18.00
2018,07,13,07,59,18.10
2018,07,13,08,00,18.20
2018,07,13,08,01,18.20
2018,07,13,08,02,18.30
2018,07,13,08,03,18.30
2018,07,13,08,04,18.30
2018,07,13,08,05,18.40
2018,07,13,08,06,18.40
2018,07,13,08,07,18.40
2018,07,13,08,08,18.40
2018,07,13,08,09,18.40
2018,07,13,08,10,18.40
2018,07,13,08,11,18.40
2018,07,13,08,12,18.40
2018,07,13,08,13,18.50
2018,07,13,08,14,18.50
2018,07,13,08,15,18.60
2018,07,13,08,16,18.60
2018,07,13,08,17,18.60
2018,07,13,08,18,18.60
2018,07,13,08,19,18.60
2018,07,13,08,20,18.70
2018,07,13,08,21,18.70
2018,07,13,08,22,18.70
2018,07,13,08,23,18.70
2018,07,13,08,24,18.70
2018,07,13,08,25,18.70
2018,07,13,08,26,18.70
2018,07,13,08,27,18.70
2018,07,13,08,28,18.70
2018,07,13,08,29,18.70
2018,07,13,08,30,18.70
2018,07,13,08,31,18.70
2018,07,13,08,32,18.70
2018,07,13,08,33,18.70
2018,07,13,08,34,18.70
2018,07,13,08,35,18.80
2018,07,13,08,36,18.80
2018,07,13,08,37,18.90
2018,07,13,08,38,18.90
2018,07,13,08,39,18.90
2018,07,13,08,40,18.90
2018,07,13,08,41,19.00
2018,07,13,08,42,19.10
2018,07,13,08,43,19.10
2018,07,13,08,44,19.10
2018,07,13,08,45,19.20
2018,07,13,08,46,19.20
2018,07,13,08,47,19.30
2018,07,13,08,48,19.30
2018,07,13,08,49,19.30
2018,07,13,08,50,19.30
2018,07,13,08,51,19.40
2018,07,13,08,52,19.40
2018,07,13,08,53,19.50
2018,07,13,08,54,19.50
2018,07,13,08,55,19.60
2018,07,13,08,56,19.60
2018,07,13,08,57,19.60
2018,07,13,08,58,19.60
2018,07,13,08,59,19.70
2018,07,13,09,00,19.70
2018,07,13,09,01,19.70
2018,07,13,09,02,19.70
2018,07,13,09,03,19.70
2018,07,13,09,04,19.80
2018,07,13,09,05,19.80
2018,07,13,09,06,19.80
2018,07,13,09,07,19.80
2018,07,13,09,08,19.90
2018,07,13,09,09,19.90
2018,07,13,09,10,20.00
2018,07,13,09,11,20.00
2018,07,13,09,12,20.10
2018,07,13,09,13,20.20
2018,07,13,09,14,20.20
2018,07,13,09,15,20.20
2018,07,13,09,16,20.30
2018,07,13,09,17,20.30
2018,07,13,09,18,20.30
2018,07,13,09,19,20.30
2018,07,13,09,20,20.30
2018,07,13,09,21,20.40
2018,07,13,09,22,20.50
2018,07,13,09,23,20.60
2018,07,13,09,24,20.70
2018,07,13,09,25,20.70
2018,07,13,09,26,20.70
2018,07,13,09,27,20.70
2018,07,13,09,28,20.70
2018,07,13,09,29,20.70
2018,07,13,09,30,20.70
2018,07,13,09,31,20.60
2018,07,13,09,32,20.60
2018,07,13,09,33,20.60
2018,07,13,09,34,20.60
2018,07,13,09,35,20.60
2018,07,13,09,36,20.70
2018,07,13,09,37,20.70
2018,07,13,09,38,20.70
2018,07,13,09,39,20.70
2018,07,13,09,40,20.70
2018,07,13,09,41,20.70
2018,07,13,09,42,20.80
2018,07,13,09,43,20.90
2018,07,13,09,44,21.00
2018,07,13,09,45,21.10
2018,07,13,09,46,21.10
2018,07,13,09,47,21.10
2018,07,13,09,48,21.10
2018,07,13,09,49,21.10
2018,07,13,09,50,21.10
2018,07,13,09,51,21.10
2018,07,13,09,52,21.10
2018,07,13,09,53,21.20
2018,07,13,09,54,21.10
2018,07,13,09,55,21.10
2018,07,13,09,56,21.10
2018,07,13,09,57,21.20
2018,07,13,09,58,21.30
2018,07,13,09,59,21.40
2018,07,13,10,00,21.50
2018,07,13,10,01,21.60
2018,07,13,10,02,21.60
2018,07,13,10,03,21.70
2018,07,13,10,04,21.70
2018,07,13,10,05,21.70
2018,07,13,10,06,21.70
2018,07,13,10,07,21.80
2018,07,13,10,08,21.80
2018,07,13,10,09,21.90
2018,07,13,10,10,22.00
2018,07,13,10,11,22.00
2018,07,13,10,12,22.10
2018,07,13,10,13,22.10
2018,07,13,10,14,22.10
2018,07,13,10,15,22.10
2018,07,13,10,16,22.10
2018,07,13,10,17,22.10
2018,07,13,10,18,22.10
2018,07,13,10,19,22.00
2018,07,13,10,20,22.00
2018,07,13,10,21,21.90
2018,07,13,10,22,21.90
2018,07,13,10,23,21.80
2018,07,13,10,24,21.90
2018,07,13,10,25,21.90
2018,07,13,10,26,21.90
2018,07,13,10,27,22.00
2018,07,13,10,28,22.00
2018,07,13,10,29,22.00
2018,07,13,10,30,22.00
2018,07,13,10,31,22.10
2018,07,13,10,32,22.10
2018,07,13,10,33,22.20
2018,07,13,10,34,22.20
2018,07,13,10,35,22.30
2018,07,13,10,36,22.30
2018,07,13,10,37,22.30
2018,07,13,10,38,22.40
2018,07,13,10,39,22.50
2018,07,13,10,40,22.50
2018,07,13,10,41,22.50
2018,07,13,10,42,22.50
2018,07,13,10,43,22.50
2018,07,13,10,44,22.50
2018,07,13,10,45,22.50
2018,07,13,10,46,22.60
2018,07,13,10,47,22.70
2018,07,13,10,48,22.70
2018,07,13,10,49,22.70
2018,07,13,10,50,22.60
2018,07,13,10,51,22.60
2018,07,13,10,52,22.60
2018,07,13,10,53,22.70
2018,07,13,10,54,22.70
2018,07,13,10,55,22.80
2018,07,13,10,56,22.80
2018,07,13,10,57,22.80
2018,07,13,10,58,22.80
2018,07,13,10,59,22.80
2018,07,13,11,00,22.80
2018,07,13,11,01,22.80
2018,07,13,11,02,22.80
2018,07,13,11,03,22.80
2018,07,13,11,04,22.80
2018,07,13,11,05,22.80
2018,07,13,11,06,22.90
2018,07,13,11,07,23.00
2018,07,13,11,08,23.10
2018,07,13,11,09,23.20
2018,07,13,11,10,23.20
2018,07,13,11,11,23.20
2018,07,13,11,12,23.30
2018,07,13,11,13,23.30
2018,07,13,11,14,23.40
2018,07,13,11,15,23.50
2018,07,13,11,16,23.50
2018,07,13,11,17,23.50
2018,07,13,11,18,23.60
2018,07,13,11,19,23.70
2018,07,13,11,20,23.70
2018,07,13,11,21,23.60
2018,07,13,11,22,23.60
2018,07,13,11,23,23.70
2018,07,13,11,24,23.70
2018,07,13,11,25,23.70
2018,07,13,11,26,23.80
2018,07,13,11,27,23.80
2018,07,13,11,28,23.90
2018,07,13,11,29,23.90
2018,07,13,11,30,24.00
2018,07,13,11,31,24.10
2018,07,13,11,32,24.20
2018,07,13,11,33,24.10
2018,07,13,11,34,24.10
2018,07,13,11,35,24.10
2018,07,13,11,36,24.20
2018,07,13,11,37,24.20
2018,07,13,11,38,24.30
2018,07,13,11,39,24.30
2018,07,13,11,40,24.30
2018,07,13,11,41,24.30
2018,07,13,11,42,24.30
2018,07,13,11,43,24.30
2018,07,13,11,44,24.30
2018,07,13,11,45,24.30
2018,07,13,11,46,24.40
2018,07,13,11,47,24.50
2018,07,13,11,48,24.60
2018,07,13,11,49,24.60
2018,07,13,11,50,24.70
2018,07,13,11,51,24.70
2018,07,13,11,52,24.70
2018,07,13,11,53,24.70
2018,07,13,11,54,24.70
2018,07,13,11,55,24.60
2018,07,13,11,56,24.50
2018,07,13,11,57,24.50
2018,07,13,11,58,24.40
2018,07,13,11,59,24.50
2018,07,13,12,00,24.50
2018,07,13,12,01,24.50
2018,07,13,12,02,24.60
2018,07,13,12,03,24.60
2018,07,13,12,04,24.70
2018,07,13,12,05,24.70
2018,07,13,12,06,24.70
2018,07,13,12,07,24.80
2018,07,13,12,08,24.90
2018,07,13,12,09,24.80
2018,07,13,12,10,24.80
2018,07,13,12,11,24.80
2018,07,13,12,12,24.90
2018,07,13,12,13,24.90
2018,07,13,12,14,24.80
2018,07,13,12,15,24.90
2018,07,13,12,16,24.90
2018,07,13,12,17,24.80
2018,07,13,12,18,24.80
2018,07,13,12,19,24.80
2018,07,13,12,20,24.80
2018,07,13,12,21,24.90
2018,07,13,12,22,25.00
2018,07,13,12,23,25.00
2018,07,13,12,24,24.90
2018,07,13,12,25,24.90
2018,07,13,12,26,25.00
2018,07,13,12,27,25.00
2018,07,13,12,28,25.10
2018,07,13,12,29,25.00
2018,07,13,12,30,25.00
2018,07,13,12,31,24.90
2018,07,13,12,32,24.90
2018,07,13,12,33,24.90
2018,07,13,12,34,25.00
2018,07,13,12,35,25.00
2018,07,13,12,36,25.10
2018,07,13,12,37,25.10
2018,07,13,12,38,25.20
2018,07,13,12,39,25.20
2018,07,13,12,40,25.20
2018,07,13,12,41,25.20
2018,07,13,12,42,25.20
2018,07,13,12,43,25.30
2018,07,13,12,44,25.30
2018,07,13,12,45,25.40
2018,07,13,12,46,25.40
2018,07,13,12,47,25.50
2018,07,13,12,48,25.60
2018,07,13,12,49,25.50
2018,07,13,12,50,25.50
2018,07,13,12,51,25.60
2018,07,13,12,52,25.60
2018,07,13,12,53,25.60
2018,07,13,12,54,25.70
2018,07,13,12,55,25.70
2018,07,13,12,56,25.70
2018,07,13,12,57,25.70
2018,07,13,12,58,25.70
2018,07,13,12,59,25.70
2018,07,13,13,00,25.70
2018,07,13,13,01,25.80
2018,07,13,13,02,25.80
2018,07,13,13,03,25.80
2018,07,13,13,04,25.80
2018,07,13,13,05,25.90
2018,07,13,13,06,25.90
2018,07,13,13,07,26.00
2018,07,13,13,08,26.10
2018,07,13,13,09,26.20
2018,07,13,13,10,26.20
2018,07,13,13,11,26.10
2018,07,13,13,12,26.00
2018,07,13,13,13,25.90
2018,07,13,13,14,25.90
2018,07,13,13,15,25.80
2018,07,13,13,16,25.80
2018,07,13,13,17,25.80
2018,07,13,13,18,25.80
2018,07,13,13,19,25.80
2018,07,13,13,20,25.80
2018,07,13,13,21,25.80
2018,07,13,13,22,25.80
2018,07,13,13,23,25.80
2018,07,13,13,24,25.80
2018,07,13,13,25,25.80
2018,07,13,13,26,25.80
2018,07,13,13,27,25.70
2018,07,13,13,28,25.70
2018,07,13,13,29,25.70
2018,07,13,13,30,25.60
2018,07,13,13,31,25.70
2018,07,13,13,32,25.80
2018,07,13,13,33,25.80
2018,07,13,13,34,25.80
2018,07,13,13,35,25.80
2018,07,13,13,36,25.80
2018,07,13,13,37,25.70
2018,07,13,13,38,25.70
2018,07,13,13,39,25.70
2018,07,13,13,40,25.70
2018,07,13,13,41,25.70
2018,07,13,13,42,25.70
2018,07,13,13,43,25.70
2018,07,13,13,44,25.80
2018,07,13,13,45,25.80
2018,07,13,13,46,25.80
2018,07,13,13,47,25.80
2018,07,13,13,48,25.80
2018,07,13,13,49,25.70
2018,07,13,13,50,25.70
2018,07,13,13,51,25.70
2018,07,13,13,52,25.80
2018,07,13,13,53,25.80
2018,07,13,13,54,25.80
2018,07,13,13,55,25.90
2018,07,13,13,56,25.90
2018,07,13,13,57,26.00
2018,07,13,13,58,26.00
2018,07,13,13,59,26.10
2018,07,13,14,00,26.10
2018,07,13,14,01,26.20
2018,07,13,14,02,26.20
2018,07,13,14,03,26.20
2018,07,13,14,04,26.20
2018,07,13,14,05,26.20
2018,07,13,14,06,26.10
2018,07,13,14,07,26.10
2018,07,13,14,08,26.10
2018,07,13,14,09,26.20
2018,07,13,14,10,26.20
2018,07,13,14,11,26.20
2018,07,13,14,12,26.10
2018,07,13,14,13,26.10
2018,07,13,14,14,26.10
2018,07,13,14,15,26.20
2018,07,13,14,16,26.30
2018,07,13,14,17,26.40
2018,07,13,14,18,26.40
2018,07,13,14,19,26.50
2018,07,13,14,20,26.50
2018,07,13,14,21,26.60
2018,07,13,14,22,26.70
2018,07,13,14,23,26.80
2018,07,13,14,24,26.80
2018,07,13,14,25,26.70
2018,07,13,14,26,26.70
2018,07,13,14,27,26.70
2018,07,13,14,28,26.80
2018,07,13,14,29,26.80
2018,07,13,14,30,26.80
2018,07,13,14,31,26.70
2018,07,13,14,32,26.60
2018,07,13,14,33,26.50
2018,07,13,14,34,26.50
2018,07,13,14,35,26.40
2018,07,13,14,36,26.40
2018,07,13,14,37,26.50
2018,07,13,14,38,26.50
2018,07,13,14,39,26.50
2018,07,13,14,40,26.50
2018,07,13,14,41,26.50
2018,07,13,14,42,26.50
2018,07,13,14,43,26.50
2018,07,13,14,44,26.50
2018,07,13,14,45,26.40
2018,07,13,14,46,26.40
2018,07,13,14,47,26.40
2018,07,13,14,48,26.40
2018,07,13,14,49,26.50
2018,07,13,14,50,26.50
2018,07,13,14,51,26.60
2018,07,13,14,52,26.70
2018,07,13,14,53,26.80
2018,07,13,14,54,26.90
2018,07,13,14,55,26.90
2018,07,13,14,56,26.80
2018,07,13,14,57,26.70
2018,07,13,14,58,26.70
2018,07,13,14,59,26.60
2018,07,13,15,00,26.50
2018,07,13,15,01,26.50
2018,07,13,15,02,26.50
2018,07,13,15,03,26.50
2018,07,13,15,04,26.60
2018,07,13,15,05,26.50
2018,07,13,15,06,26.40
2018,07,13,15,07,26.40
2018,07,13,15,08,26.30
2018,07,13,15,09,26.40
2018,07,13,15,10,26.40
2018,07,13,15,11,26.50
2018,07,13,15,12,26.60
2018,07,13,15,13,26.60
2018,07,13,15,14,26.60
2018,07,13,15,15,26.60
2018,07,13,15,16,26.50
2018,07,13,15,17,26.50
2018,07,13,15,18,26.60
2018,07,13,15,19,26.60
2018,07,13,15,20,26.70
2018,07,13,15,21,26.70
2018,07,13,15,22,26.70
2018,07,13,15,23,26.70
2018,07,13,15,24,26.70
2018,07,13,15,25,26.70
2018,07,13,15,26,26.70
2018,07,13,15,27,26.80
2018,07,13,15,28,26.80
2018,07,13,15,29,26.80
2018,07,13,15,30,26.90
2018,07,13,15,31,26.90
2018,07,13,15,32,27.00
2018,07,13,15,33,27.10
2018,07,13,15,34,27.10
2018,07,13,15,35,27.00
2018,07,13,15,36,26.90
2018,07,13,15,37,26.80
2018,07,13,15,38,26.80
2018,07,13,15,39,26.90
2018,07,13,15,40,26.80
2018,07,13,15,41,26.70
2018,07,13,15,42,26.70
2018,07,13,15,43,26.60
2018,07,13,15,44,26.60
2018,07,13,15,45,26.70
2018,07,13,15,46,26.70
2018,07,13,15,47,26.70
2018,07,13,15,48,26.60
2018,07,13,15,49,26.60
2018,07,13,15,50,26.60
2018,07,13,15,51,26.60
2018,07,13,15,52,26.60
2018,07,13,15,53,26.70
2018,07,13,15,54,26.70
2018,07,13,15,55,26.70
2018,07,13,15,56,26.70
2018,07,13,15,57,26.70
2018,07,13,15,58,26.70
2018,07,13,15,59,26.80
2018,07,13,16,00,26.80
2018,07,13,16,01,26.90
2018,07,13,16,02,26.90
2018,07,13,16,03,26.90
2018,07,13,16,04,26.90
2018,07,13,16,05,26.80
2018,07,13,16,06,26.80
2018,07,13,16,07,26.80
2018,07,13,16,08,26.80
2018,07,13,16,09,26.80
2018,07,13,16,10,26.70
2018,07,13,16,11,26.70
2018,07,13,16,12,26.70
2018,07,13,16,13,26.70
2018,07,13,16,14,26.60
2018,07,13,16,15,26.60
2018,07,13,16,16,26.60
2018,07,13,16,17,26.70
2018,07,13,16,18,26.70
2018,07,13,16,19,26.70
2018,07,13,16,20,26.60
2018,07,13,16,21,26.60
2018,07,13,16,22,26.50
2018,07,13,16,23,26.50
2018,07,13,16,24,26.60
2018,07,13,16,25,26.70
2018,07,13,16,26,26.70
2018,07,13,16,27,26.70
2018,07,13,16,28,26.80
2018,07,13,16,29,26.80
2018,07,13,16,30,26.80
2018,07,13,16,31,26.80
2018,07,13,16,32,26.80
2018,07,13,16,33,26.70
2018,07,13,16,34,26.70
2018,07,13,16,35,26.70
2018,07,13,16,36,26.70
2018,07,13,16,37,26.60
2018,07,13,16,38,26.70
2018,07,13,16,39,26.70
2018,07,13,16,40,26.70
2018,07,13,16,41,26.80
2018,07,13,16,42,26.90
2018,07,13,16,43,26.90
2018,07,13,16,44,26.90
2018,07,13,16,45,26.90
2018,07,13,16,46,26.80
2018,07,13,16,47,26.80
2018,07,13,16,48,26.80
2018,07,13,16,49,26.70
2018,07,13,16,50,26.70
2018,07,13,16,51,26.80
2018,07,13,16,52,26.70
2018,07,13,16,53,26.70
2018,07,13,16,54,26.70
2018,07,13,16,55,26.80
2018,07,13,16,56,26.80
2018,07,13,16,57,26.80
2018,07,13,16,58,26.90
2018,07,13,16,59,26.90
2018,07,13,17,00,26.90
2018,07,13,17,01,26.90
2018,07,13,17,02,26.90
2018,07,13,17,03,27.00
2018,07,13,17,04,27.00
2018,07,13,17,05,27.00
2018,07,13,17,06,27.00
2018,07,13,17,07,27.00
2018,07,13,17,08,26.80
2018,07,13,17,09,26.70
2018,07,13,17,10,26.60
2018,07,13,17,11,26.50
2018,07,13,17,12,26.50
2018,07,13,17,13,26.50
2018,07,13,17,14,26.40
2018,07,13,17,15,26.40
2018,07,13,17,16,26.40
2018,07,13,17,17,26.30
2018,07,13,17,18,26.30
2018,07,13,17,19,26.30